Location: Artiguedieu
(43.5000°N, 0.5454°E)
Time: 23:31:17
(UTC+00:00)

Transit 2A Rocket - Pass Details

Date: 02 August 2021
Orbit: 586 x 916 km, 66.7° (Epoch: 19 September)

Event Time Altitude Azimuth Distance (km) Brightness Sun altitude
Rises 20:04:02 0° 339° (NNW) 3,206 9.2 -7.9°
Reaches altitude 10° 20:08:07 10° 10° (N) 2,365 7.9 -8.6°
Maximum altitude 20:10:10 12° 32° (NNE) 2,264 7.5 -8.9°
Drops below altitude 10° 20:12:17 10° 55° (NE) 2,444 7.4 -9.2°
Enters shadow 20:16:00 - 82° (E) 3,268 7.8 -9.7°
Sets 20:16:39 0° 85° (E) 3,450 - -9.8°
